AirNav   TITAN Aviation Fuels
 
 1407 users online  

KSEQ Randolph Air Force Base Auxiliary Field
Seguin, Texas, USA

GOING TO SEGUIN?


FAA INFORMATION EFFECTIVE 16 JUNE 2022

Location

FAA Identifier: SEQ
Lat/Long: 29-33-56.8290N 097-54-30.0120W
29-33.947150N 097-54.500200W
29.5657858,-97.9083367
(estimated)
Elevation: 525 ft. / 160 m (estimated)
Variation: 07E (1985)
From city: 3 miles E of SEGUIN, TX
Time zone: UTC -5 (UTC -6 during Standard Time)
Zip code: 78155

Airport Operations

Airport use: Private use. Permission required prior to landing
Activation date: 07/1941
Control tower: no
ARTCC: HOUSTON CENTER
FSS: SAN ANGELO FLIGHT SERVICE STATION
Attendance: MON-FRI SR-SS
CLSD WKND AND FED HOLS.
Segmented circle: no

Airport Communications

CTAF: 122.975
WX ASOS at BAZ (11 nm NW): 119.325 (830-629-7979)
WX AWOS-3PT at HYI (20 nm N): PHONE 512-353-8005

Nearby radio navigation aids

VOR radial/distance  VOR name  Freq  Var
RNDr077/19.9RANDOLPH VORTAC112.3005E
SATr091/29.2SAN ANTONIO VORTAC116.8008E
SSFr048/(33.5)STINSON VOR108.4009E

Airport Services

Oil available: UHF 271.2.
Airframe service: NONE
Powerplant service: NONE
Bottled oxygen: NONE
Bulk oxygen: NONE

Runway Information

Runway 13/31

Dimensions: 8350 x 150 ft. / 2545 x 46 m
Surface: asphalt
Weight bearing capacity: 
PCN 26 /F/B/W/T
RUNWAY 13  RUNWAY 31
Traffic pattern: leftleft
Runway end identifier lights: nono

Airport Ownership and Management from official FAA records

Ownership: U.S. Air Force
Owner: U.S. AIR FORCE
RANDOLPH AFB
UNIVERSITY CITY, TX 78148
Manager: COMMANDING OFFICER
RANDOLPH AFB
UNIVERSITY CITY, TX 78148

Additional Remarks

CAUTION: AFLD UNLGTD. RWY 13-31 SHOULDERS UNPAVED. TWY A SHOULDERS UNPAVED.
MISC: NO ACFT RCVR AVAIL. AFLD NOT EQUIPPED TO SUPPORT ACFT WITH HYDRAZINE, HAZ CARGO, LIVE ORDNANCE OR ANY AFCT RQR CSTMS/AG/IMG.
MISC: NO FUEL, FLUID, OR OIL SVCS AVBL.
SERVICE-A-GEAR: MA1A ARRESTING SYSTEM 150 FT INTO EACH DEP END OVRN.
12 FTW ACFT USE ONLY, OFFL BUS ONLY. AFLD MGMT, DSN 487-8160 OR C210-652-8160, MUST APV OTHER OPS. GND SVC UNAVBL. NO TRAN ALERT OR MAINT SVC. LTD FIREFIGHTING CAPABILITY.
ACFT TRSNG THRU A-638 BLO 3000 FT MSL, CTC RY SUPERVISORY UNIT (CALL SIGN CHARLIE BROWN) WITH PSN AND ALT; CHARLIE BROWN - 122.975, 271.2.
FOR CD CTC SAN ANTONIO APCH AT 210-805-5516.

Instrument Procedures

There are no published instrument procedures at KSEQ.

Some nearby airports with instrument procedures:

KBAZ - New Braunfels National Airport (11 nm NW)
KRND - Randolph Air Force Base (19 nm W)
KHYI - San Marcos Regional Airport (20 nm N)
50R - Lockhart Municipal Airport (21 nm NE)
KSAT - San Antonio International Airport (29 nm W)
 
Loc | Ops | Rwys | IFR | FBO | Links
Com | Nav | Svcs | Stats | Notes
Area around KSEQ (Randolph Air Force Base Auxiliary Field)
 
Road maps at: MapQuest Bing Google
 
Aerial photo
No photo
 
Sectional chart

 
Airport distance calculator
Flying to Randolph Air Force Base Auxiliary Field? Find the distance to fly.

From to KSEQ

Sunrise and sunset
Times for 06-Jul-2022
 Local
(UTC-5)
 Zulu
(UTC)
Morning civil twilight06:1111:11
Sunrise06:3811:38
Sunset20:3401:34
Evening civil twilight21:0202:02

Current date and time
Zulu (UTC)  06-Jul-2022 14:13:48
Local (UTC-5)  06-Jul-2022 09:13:48
 
METAR
KSEQ 061356Z AUTO 23008KT 10SM SCT013 26/24 A2999 RMK AO2 SLP151 T02620236 $
KBAZ 
12nm NW 
061351Z 21011KT 10SM BKN016 28/23 A3000 RMK AO2 SLP147 T02780233
KRND 
19nm W 
061356Z 21008KT 10SM FEW013 27/22 A2999 RMK AO2A SLP146 T02730224
KHYI 
19nm N 
061356Z 21011KT 10SM OVC014 27/24 A3002 RMK AO2 SLP156 T02720239
TAF
KRND 
19nm W 
061000Z 0610/0716 17009KT 9999 SCT014 QNH2996INS TEMPO 0611/0615 BKN014 BECMG 0615/0616 19010G15KT 9999 SCT030 QNH2984INS BECMG 0623/0624 15012G18KT 9999 FEW270 QNH2984INS BECMG 0706/0707 17009KT 9999 FEW020 SCT200 QNH2994INS BECMG 0708/0709 18007KT 9999 BKN011 OVC018 QNH2996INS BECMG 0714/0715 20012KT 9999 FEW019 FEW210 QNH2990INS TX38/0622Z TN24/0611Z
NOTAMs
Click for the latest NOTAMs
NOTAMs are issued by the DoD/FAA and will open in a separate window not controlled by AirNav.

 

 
 

Would you like to see your business listed on this page?

 If your business provides an interesting product or service to pilots, flight crews, aircraft, or users of the Randolph Air Force Base Auxiliary Field, you should consider listing it here.  To start the listing process, click on the button below
 
Add a business
 

Other Pages about Randolph Air Force Base Auxiliary Field

Update a link
 
Copyright © AirNav, LLC. All rights reserved. Privacy Policy  Contact